Time,TemperatureF,DewpointF,PressureIn,WindDirection,WindDirectionDegrees,WindSpeedMPH,WindSpeedGustMPH,Humidity,HourlyPrecipIn,Conditions,Clouds,dailyrainin,SoftwareType,DateUTC
2013-01-16 00:07:00,34.9,34.4,29.91,East,90,0.0,-999.0,98,-99.99,,,0.00,Acu-Link.com,2013-01-16 05:07:00,
2013-01-16 00:22:00,34.5,34.0,29.92,East,90,1.7,-999.0,98,-99.99,,,0.04,Acu-Link.com,2013-01-16 05:22:00,
2013-01-16 00:38:00,34.2,33.7,29.91,NE,45,4.2,-999.0,98,-99.99,,,0.07,Acu-Link.com,2013-01-16 05:38:00,
2013-01-16 00:53:00,34.0,33.5,29.91,ENE,67,0.0,-999.0,98,-99.99,,,0.09,Acu-Link.com,2013-01-16 05:53:00,
2013-01-16 01:08:00,34.0,33.5,29.90,SSE,157,0.0,-999.0,98,-99.99,,,0.12,Acu-Link.com,2013-01-16 06:08:00,
2013-01-16 01:23:00,33.6,33.1,29.88,NE,45,2.7,-999.0,98,-99.99,,,0.14,Acu-Link.com,2013-01-16 06:23:00,
2013-01-16 01:38:00,33.4,32.9,29.88,NNE,22,2.7,-999.0,98,-99.99,,,0.18,Acu-Link.com,2013-01-16 06:38:00,
2013-01-16 01:53:00,33.3,32.8,29.87,West,270,5.3,-999.0,98,-99.99,,,0.20,Acu-Link.com,2013-01-16 06:53:00,
2013-01-16 02:08:00,33.1,32.6,29.88,ESE,112,4.2,-999.0,98,-99.99,,,0.21,Acu-Link.com,2013-01-16 07:08:00,
2013-01-16 02:23:00,32.9,32.4,29.87,ENE,67,2.2,-999.0,98,-99.99,,,0.23,Acu-Link.com,2013-01-16 07:23:00,
2013-01-16 02:38:00,32.9,32.4,29.87,East,90,2.7,-999.0,98,-99.99,,,0.27,Acu-Link.com,2013-01-16 07:38:00,
2013-01-16 02:54:00,32.7,32.2,29.84,South,180,3.7,-999.0,98,-99.99,,,0.31,Acu-Link.com,2013-01-16 07:54:00,
2013-01-16 03:09:00,32.7,32.2,29.84,ENE,67,3.7,-999.0,98,-99.99,,,0.34,Acu-Link.com,2013-01-16 08:09:00,
2013-01-16 03:24:00,32.5,32.0,29.83,NE,45,1.1,-999.0,98,-99.99,,,0.38,Acu-Link.com,2013-01-16 08:24:00,
2013-01-16 03:39:00,32.5,32.0,29.82,SW,225,2.2,-999.0,98,-99.99,,,0.41,Acu-Link.com,2013-01-16 08:39:00,
2013-01-16 03:54:00,32.5,32.0,29.82,East,90,0.0,-999.0,98,-99.99,,,0.50,Acu-Link.com,2013-01-16 08:54:00,
2013-01-16 04:22:00,32.5,32.0,29.81,East,90,1.7,-999.0,98,-99.99,,,0.52,Acu-Link.com,2013-01-16 09:22:00,
2013-01-16 04:37:00,32.4,31.9,29.81,East,90,1.1,-999.0,98,-99.99,,,0.52,Acu-Link.com,2013-01-16 09:37:00,
2013-01-16 04:53:00,32.4,31.9,29.81,NE,45,3.2,-999.0,98,-99.99,,,0.52,Acu-Link.com,2013-01-16 09:53:00,
2013-01-16 05:08:00,32.5,32.0,29.80,West,270,0.0,-999.0,98,-99.99,,,0.53,Acu-Link.com,2013-01-16 10:08:00,
2013-01-16 05:23:00,32.5,32.0,29.78,NW,315,1.1,-999.0,98,-99.99,,,0.54,Acu-Link.com,2013-01-16 10:23:00,
2013-01-16 05:38:00,32.5,32.0,29.78,East,90,0.0,-999.0,98,-99.99,,,0.56,Acu-Link.com,2013-01-16 10:38:00,
2013-01-16 05:53:00,32.5,32.0,29.78,South,180,2.2,-999.0,98,-99.99,,,0.57,Acu-Link.com,2013-01-16 10:53:00,
2013-01-16 06:08:00,32.5,32.0,29.75,East,90,2.2,-999.0,98,-99.99,,,0.59,Acu-Link.com,2013-01-16 11:08:00,
2013-01-16 06:23:00,32.5,32.0,29.76,ESE,112,0.0,-999.0,98,-99.99,,,0.62,Acu-Link.com,2013-01-16 11:23:00,
2013-01-16 06:38:00,32.7,32.2,29.74,NE,45,0.0,-999.0,98,-99.99,,,0.64,Acu-Link.com,2013-01-16 11:38:00,
2013-01-16 06:53:00,32.7,32.2,29.76,East,90,0.0,-999.0,98,-99.99,,,0.65,Acu-Link.com,2013-01-16 11:53:00,
2013-01-16 07:09:00,32.7,32.2,29.76,East,90,1.7,-999.0,98,-99.99,,,0.66,Acu-Link.com,2013-01-16 12:09:00,
2013-01-16 07:24:00,32.7,32.2,29.76,East,90,0.0,-999.0,98,-99.99,,,0.67,Acu-Link.com,2013-01-16 12:24:00,
2013-01-16 07:39:00,32.7,32.2,29.74,SW,225,0.0,-999.0,98,-99.99,,,0.68,Acu-Link.com,2013-01-16 12:39:00,
2013-01-16 07:54:00,32.7,32.2,29.73,SE,135,0.0,-999.0,98,-99.99,,,0.71,Acu-Link.com,2013-01-16 12:54:00,
2013-01-16 08:09:00,32.9,32.4,29.73,ENE,67,0.0,-999.0,98,-99.99,,,0.72,Acu-Link.com,2013-01-16 13:09:00,
2013-01-16 08:24:00,32.9,32.4,29.72,NNW,337,0.0,-999.0,98,-99.99,,,0.72,Acu-Link.com,2013-01-16 13:24:00,
2013-01-16 08:39:00,33.1,32.6,29.71,ENE,67,2.2,-999.0,98,-99.99,,,0.72,Acu-Link.com,2013-01-16 13:39:00,
2013-01-16 08:54:00,33.1,32.6,29.68,NNW,337,2.7,-999.0,98,-99.99,,,0.73,Acu-Link.com,2013-01-16 13:54:00,
2013-01-16 09:09:00,33.3,32.8,29.66,NE,45,1.1,-999.0,98,-99.99,,,0.73,Acu-Link.com,2013-01-16 14:09:00,
2013-01-16 09:25:00,33.3,32.8,29.68,ESE,112,2.2,-999.0,98,-99.99,,,0.74,Acu-Link.com,2013-01-16 14:25:00,
2013-01-16 09:40:00,33.3,32.8,29.68,WSW,247,0.0,-999.0,98,-99.99,,,0.74,Acu-Link.com,2013-01-16 14:40:00,
2013-01-16 09:55:00,33.4,32.9,29.66,WSW,247,0.0,-999.0,98,-99.99,,,0.74,Acu-Link.com,2013-01-16 14:55:00,
2013-01-16 10:10:00,33.6,33.1,29.71,WSW,247,0.0,-999.0,98,-99.99,,,0.75,Acu-Link.com,2013-01-16 15:10:00,
2013-01-16 10:25:00,33.8,33.3,29.70,NE,45,0.0,-999.0,98,-99.99,,,0.75,Acu-Link.com,2013-01-16 15:25:00,
2013-01-16 10:40:00,33.8,33.3,29.69,West,270,0.0,-999.0,98,-99.99,,,0.76,Acu-Link.com,2013-01-16 15:40:00,
2013-01-16 10:55:00,34.0,33.5,29.68,ESE,112,0.0,-999.0,98,-99.99,,,0.77,Acu-Link.com,2013-01-16 15:55:00,
2013-01-16 11:10:00,34.2,33.7,29.67,West,270,1.7,-999.0,98,-99.99,,,0.78,Acu-Link.com,2013-01-16 16:10:00,
2013-01-16 11:25:00,34.2,33.7,29.67,SW,225,0.0,-999.0,98,-99.99,,,0.79,Acu-Link.com,2013-01-16 16:25:00,
2013-01-16 11:40:00,34.0,33.5,29.67,SE,135,0.0,-999.0,98,-99.99,,,0.80,Acu-Link.com,2013-01-16 16:40:00,
2013-01-16 11:56:00,34.0,33.5,29.65,ESE,112,0.0,-999.0,98,-99.99,,,0.80,Acu-Link.com,2013-01-16 16:56:00,
2013-01-16 12:11:00,34.0,33.5,29.64,SSE,157,0.0,-999.0,98,-99.99,,,0.81,Acu-Link.com,2013-01-16 17:11:00,
2013-01-16 12:26:00,34.2,33.7,29.60,SW,225,0.0,-999.0,98,-99.99,,,0.83,Acu-Link.com,2013-01-16 17:26:00,
2013-01-16 12:41:00,34.2,33.7,29.61,ENE,67,0.0,-999.0,98,-99.99,,,0.83,Acu-Link.com,2013-01-16 17:41:00,
2013-01-16 12:56:00,34.2,33.7,29.54,NE,45,0.0,-999.0,98,-99.99,,,0.84,Acu-Link.com,2013-01-16 17:56:00,
2013-01-16 13:11:00,34.2,33.7,29.53,NNE,22,1.7,-999.0,98,-99.99,,,0.84,Acu-Link.com,2013-01-16 18:11:00,
2013-01-16 13:26:00,34.3,33.8,29.56,NNW,337,1.7,-999.0,98,-99.99,,,0.85,Acu-Link.com,2013-01-16 18:26:00,
2013-01-16 13:41:00,34.3,33.8,29.56,East,90,1.1,-999.0,98,-99.99,,,0.85,Acu-Link.com,2013-01-16 18:41:00,
2013-01-16 13:56:00,34.3,33.8,29.60,NNE,22,2.2,-999.0,98,-99.99,,,0.86,Acu-Link.com,2013-01-16 18:56:00,
2013-01-16 14:12:00,34.2,33.7,29.61,SSE,157,2.7,-999.0,98,-99.99,,,0.86,Acu-Link.com,2013-01-16 19:12:00,
2013-01-16 14:27:00,34.3,33.8,29.63,SSW,202,1.1,-999.0,98,-99.99,,,0.86,Acu-Link.com,2013-01-16 19:27:00,
2013-01-16 14:42:00,34.3,33.8,29.59,WNW,292,0.0,-999.0,98,-99.99,,,0.87,Acu-Link.com,2013-01-16 19:42:00,
2013-01-16 14:57:00,34.9,34.4,29.59,ESE,112,0.0,-999.0,98,-99.99,,,0.87,Acu-Link.com,2013-01-16 19:57:00,
2013-01-16 15:12:00,35.2,34.7,29.61,ENE,67,0.0,-999.0,98,-99.99,,,0.87,Acu-Link.com,2013-01-16 20:12:00,
2013-01-16 15:27:00,35.2,34.7,29.61,East,90,0.0,-999.0,98,-99.99,,,0.87,Acu-Link.com,2013-01-16 20:27:00,
2013-01-16 15:42:00,35.2,34.7,29.62,ESE,112,0.0,-999.0,98,-99.99,,,0.88,Acu-Link.com,2013-01-16 20:42:00,
2013-01-16 15:57:00,35.2,34.7,29.61,ENE,67,0.0,-999.0,98,-99.99,,,0.88,Acu-Link.com,2013-01-16 20:57:00,
2013-01-16 16:12:00,35.2,34.7,29.60,NW,315,0.0,-999.0,98,-99.99,,,0.89,Acu-Link.com,2013-01-16 21:12:00,
2013-01-16 16:28:00,35.2,34.7,29.63,WSW,247,0.0,-999.0,98,-99.99,,,0.89,Acu-Link.com,2013-01-16 21:28:00,
2013-01-16 16:43:00,35.2,34.7,29.62,NW,315,0.0,-999.0,98,-99.99,,,0.89,Acu-Link.com,2013-01-16 21:43:00,
2013-01-16 16:58:00,35.1,34.6,29.63,SW,225,0.0,-999.0,98,-99.99,,,0.90,Acu-Link.com,2013-01-16 21:58:00,
2013-01-16 17:13:00,35.2,34.7,29.63,North,0,0.0,-999.0,98,-99.99,,,0.90,Acu-Link.com,2013-01-16 22:13:00,
2013-01-16 17:28:00,35.2,34.7,29.63,SW,225,1.7,-999.0,98,-99.99,,,0.90,Acu-Link.com,2013-01-16 22:28:00,
2013-01-16 17:43:00,35.2,34.7,29.64,NNW,337,1.1,-999.0,98,-99.99,,,0.90,Acu-Link.com,2013-01-16 22:43:00,
2013-01-16 17:58:00,35.2,34.7,29.63,SSW,202,2.7,-999.0,98,-99.99,,,0.91,Acu-Link.com,2013-01-16 22:58:00,
2013-01-16 18:13:00,35.2,34.7,29.62,South,180,1.1,-999.0,98,-99.99,,,0.91,Acu-Link.com,2013-01-16 23:13:00,
2013-01-16 18:28:00,35.2,34.7,29.62,ESE,112,0.0,-999.0,98,-99.99,,,0.92,Acu-Link.com,2013-01-16 23:28:00,
2013-01-16 18:44:00,35.2,34.7,29.62,South,180,1.7,-999.0,98,-99.99,,,0.92,Acu-Link.com,2013-01-16 23:44:00,
2013-01-16 18:59:00,35.2,34.7,29.63,West,270,0.0,-999.0,98,-99.99,,,0.92,Acu-Link.com,2013-01-16 23:59:00,
2013-01-16 19:14:00,35.2,34.7,29.63,East,90,1.7,-999.0,98,-99.99,,,0.93,Acu-Link.com,2013-01-17 00:14:00,
2013-01-16 19:29:00,35.2,34.7,29.63,SSW,202,1.7,-999.0,98,-99.99,,,0.93,Acu-Link.com,2013-01-17 00:29:00,
2013-01-16 19:44:00,35.4,34.9,29.63,SW,225,1.1,-999.0,98,-99.99,,,0.93,Acu-Link.com,2013-01-17 00:44:00,
2013-01-16 19:59:00,35.4,34.9,29.63,SSW,202,3.2,-999.0,98,-99.99,,,0.94,Acu-Link.com,2013-01-17 00:59:00,
2013-01-16 20:14:00,35.4,34.9,29.64,West,270,1.7,-999.0,98,-99.99,,,0.95,Acu-Link.com,2013-01-17 01:14:00,
2013-01-16 20:29:00,35.8,35.3,29.64,West,270,2.2,-999.0,98,-99.99,,,0.95,Acu-Link.com,2013-01-17 01:29:00,
2013-01-16 20:44:00,35.8,35.3,29.64,North,0,2.2,-999.0,98,-99.99,,,0.95,Acu-Link.com,2013-01-17 01:44:00,
2013-01-16 21:00:00,35.8,35.3,29.65,ENE,67,1.1,-999.0,98,-99.99,,,0.95,Acu-Link.com,2013-01-17 02:00:00,
2013-01-16 21:15:00,35.8,35.3,29.64,SW,225,2.2,-999.0,98,-99.99,,,0.95,Acu-Link.com,2013-01-17 02:15:00,
2013-01-16 21:30:00,35.6,35.1,29.64,East,90,2.2,-999.0,98,-99.99,,,0.95,Acu-Link.com,2013-01-17 02:30:00,
2013-01-16 21:45:00,35.6,35.1,29.63,NNW,337,0.0,-999.0,98,-99.99,,,0.95,Acu-Link.com,2013-01-17 02:45:00,
2013-01-16 22:00:00,35.6,35.1,29.64,ESE,112,0.0,-999.0,98,-99.99,,,0.96,Acu-Link.com,2013-01-17 03:00:00,
2013-01-16 22:15:00,35.4,34.9,29.61,SW,225,0.0,-999.0,98,-99.99,,,0.96,Acu-Link.com,2013-01-17 03:15:00,
2013-01-16 22:30:00,35.4,34.9,29.64,SE,135,1.7,-999.0,98,-99.99,,,0.96,Acu-Link.com,2013-01-17 03:30:00,
2013-01-16 22:45:00,35.4,34.9,29.64,SW,225,0.0,-999.0,98,-99.99,,,0.96,Acu-Link.com,2013-01-17 03:45:00,
2013-01-16 23:00:00,35.4,34.9,29.64,WSW,247,0.0,-999.0,98,-99.99,,,0.96,Acu-Link.com,2013-01-17 04:00:00,
2013-01-16 23:16:00,35.6,35.1,29.64,SSW,202,0.0,-999.0,98,-99.99,,,0.96,Acu-Link.com,2013-01-17 04:16:00,
2013-01-16 23:31:00,35.6,35.1,29.65,East,90,0.0,-999.0,98,-99.99,,,0.96,Acu-Link.com,2013-01-17 04:31:00,
2013-01-16 23:46:00,35.6,35.1,29.65,SSE,157,0.0,-999.0,98,-99.99,,,0.97,Acu-Link.com,2013-01-17 04:46:00,